QPF
0.00 0.00 0.00 0.00 0.00 0.00 0.00 0.00 0.00 0.00 0.00 0.00 0.00 0.00 0.00 0.00 0.00 0.00 0.00 0.00 0.00 0.00 0.00 0.00 0.00 0.00 0.00 0.00 0.00 0.00 0.01 0.00 0.00 0.00 0.01 0.01 0.01 0.01 0.01 0.01 0.01 0.01 0.01
0.00 0.00 0.00 0.00 0.00 0.00 0.00 0.00 0.00 0.00 0.00 0.00 0.00 0.00 0.00 0.00 0.00 0.00 0.00 0.00 0.00 0.00 0.00 0.00 0.00 0.00 0.00 0.00 0.00 0.00 0.00 0.01 0.01 0.01 0.01 0.01 0.01 0.01 0.02 0.03 0.02 0.01 0.01
0.01 0.00 0.00 0.00 0.00 0.00 0.00 0.00 0.00 0.00 0.00 0.00 0.00 0.00 0.00 0.00 0.00 0.00 0.00 0.00 0.00 0.00 0.00 0.00 0.00 0.00 0.00 0.00 0.00 0.00 0.00 0.01 0.02 0.04 0.07 0.05 0.04 0.04 0.04 0.03 0.03 0.02 0.01
0.00 0.00 0.00 0.00 0.00 0.00 0.00 0.00 0.00 0.00 0.00 0.00 0.00 0.00 0.00 0.00 0.00 0.00 0.00 0.00 0.00 0.00 0.00 0.00 0.00 0.00 0.00 0.00 0.00 0.00 0.00 0.00 0.02 0.05 0.07 0.10 0.11 0.10 0.08 0.04 0.03 0.02 0.01
0.00 0.00 0.00 0.00 0.00 0.00 0.00 0.00 0.00 0.00 0.00 0.00 0.00 0.00 0.00 0.00 0.00 0.00 0.00 0.00 0.00 0.00 0.00 0.00 0.00 0.00 0.00 0.00 0.00 0.00 0.00 0.01 0.03 0.05 0.07 0.09 0.12 0.13 0.11 0.06 0.02 0.02 0.02
0.00 0.00 0.00 0.00 0.00 0.00 0.00 0.00 0.00 0.00 0.00 0.00 0.00 0.00 0.00 0.00 0.00 0.00 0.00 0.01 0.00 0.00 0.00 0.00 0.00 0.00 0.00 0.00 0.00 0.00 0.01 0.01 0.03 0.03 0.06 0.12 0.14 0.13 0.10 0.06 0.03 0.02 0.01
0.01 0.00 0.00 0.00 0.00 0.00 0.00 0.00 0.00 0.00 0.00 0.00 0.00 0.00 0.00 0.00 0.00 0.00 0.00 0.00 0.00 0.00 0.00 0.00 0.00 0.00 0.00 0.00 0.00 0.01 0.01 0.02 0.03 0.03 0.07 0.11 0.11 0.13 0.13 0.08 0.05 0.04 0.02
0.01 0.01 0.00 0.00 0.01 0.01 0.01 0.00 0.00 0.00 0.00 0.00 0.00 0.00 0.00 0.00 0.01 0.01 0.01 0.01 0.00 0.00 0.00 0.00 0.00 0.00 0.00 0.00 0.00 0.01 0.01 0.01 0.01 0.03 0.08 0.10 0.08 0.13 0.16 0.12 0.09 0.07 0.04
0.02 0.02 0.01 0.01 0.02 0.01 0.01 0.00 0.00 0.00 0.00 0.00 0.00 0.00 0.00 0.01 0.01 0.01 0.01 0.01 0.01 0.01 0.00 0.00 0.00 0.00 0.00 0.01 0.00 0.01 0.01 0.02 0.02 0.02 0.06 0.09 0.12 0.15 0.18 0.16 0.13 0.09 0.06
0.05 0.05 0.05 0.03 0.02 0.01 0.01 0.01 0.01 0.00 0.00 0.00 0.00 0.00 0.00 0.01 0.01 0.02 0.02 0.02 0.02 0.01 0.01 0.01 0.01 0.01 0.01 0.01 0.01 0.01 0.02 0.02 0.02 0.04 0.07 0.08 0.13 0.18 0.17 0.15 0.12 0.09 0.06
0.10 0.10 0.04 0.02 0.01 0.01 0.02 0.01 0.01 0.01 0.01 0.01 0.01 0.01 0.00 0.00 0.00 0.01 0.03 0.04 0.03 0.02 0.02 0.02 0.02 0.01 0.01 0.01 0.02 0.03 0.03 0.02 0.03 0.05 0.07 0.09 0.14 0.16 0.17 0.16 0.11 0.08 0.07
0.05 0.06 0.04 0.03 0.02 0.02 0.02 0.01 0.01 0.01 0.01 0.01 0.00 0.01 0.01 0.01 0.01 0.01 0.02 0.03 0.04 0.03 0.04 0.04 0.03 0.02 0.03 0.01 0.02 0.03 0.04 0.04 0.07 0.06 0.05 0.08 0.11 0.12 0.13 0.13 0.10 0.07 0.07
0.04 0.05 0.04 0.03 0.02 0.02 0.02 0.01 0.01 0.01 0.02 0.01 0.01 0.01 0.01 0.01 0.01 0.01 0.02 0.03 0.04 0.04 0.04 0.04 0.03 0.03 0.03 0.03 0.03 0.05 0.06 0.08 0.09 0.08 0.06 0.07 0.09 0.11 0.12 0.09 0.07 0.06 0.06
0.05 0.05 0.03 0.02 0.03 0.02 0.01 0.01 0.01 0.01 0.02 0.01 0.02 0.03 0.02 0.01 0.02 0.02 0.03 0.04 0.04 0.05 0.05 0.05 0.06 0.07 0.06 0.05 0.05 0.06 0.05 0.08 0.09 0.09 0.08 0.08 0.08 0.09 0.09 0.08 0.07 0.06 0.05
0.05 0.04 0.02 0.02 0.02 0.02 0.01 0.01 0.01 0.01 0.02 0.02 0.02 0.02 0.02 0.02 0.03 0.04 0.05 0.06 0.08 0.09 0.07 0.07 0.09 0.10 0.09 0.06 0.05 0.06 0.07 0.07 0.08 0.09 0.09 0.09 0.08 0.07 0.09 0.09 0.09 0.08 0.07
0.05 0.03 0.02 0.02 0.02 0.01 0.01 0.02 0.01 0.01 0.02 0.02 0.02 0.03 0.04 0.07 0.09 0.08 0.08 0.09 0.10 0.09 0.07 0.07 0.08 0.07 0.05 0.05 0.04 0.05 0.06 0.07 0.07 0.08 0.08 0.08 0.08 0.08 0.09 0.09 0.09 0.09 0.09
0.06 0.04 0.03 0.02 0.02 0.02 0.02 0.02 0.01 0.02 0.03 0.02 0.03 0.04 0.05 0.07 0.09 0.11 0.10 0.10 0.12 0.13 0.12 0.13 0.11 0.07 0.06 0.07 0.07 0.06 0.05 0.04 0.06 0.07 0.06 0.05 0.06 0.08 0.09 0.08 0.08 0.09 0.08
0.08 0.05 0.04 0.03 0.03 0.03 0.02 0.03 0.02 0.02 0.03 0.03 0.04 0.04 0.04 0.03 0.05 0.08 0.10 0.09 0.08 0.09 0.09 0.12 0.13 0.11 0.11 0.07 0.07 0.05 0.04 0.04 0.04 0.06 0.07 0.06 0.07 0.09 0.07 0.08 0.07 0.08 0.09
0.10 0.07 0.06 0.05 0.05 0.04 0.05 0.04 0.04 0.04 0.03 0.03 0.03 0.03 0.03 0.03 0.04 0.09 0.06 0.05 0.05 0.05 0.08 0.07 0.07 0.08 0.12 0.10 0.06 0.05 0.06 0.06 0.06 0.07 0.09 0.08 0.08 0.09 0.08 0.08 0.08 0.08 0.08
0.14 0.11 0.07 0.07 0.06 0.05 0.04 0.04 0.05 0.06 0.05 0.04 0.04 0.04 0.03 0.02 0.02 0.04 0.05 0.06 0.06 0.06 0.07 0.07 0.05 0.04 0.05 0.08 0.07 0.06 0.07 0.08 0.08 0.08 0.08 0.08 0.08 0.08 0.08 0.09 0.08 0.06 0.07
0.17 0.12 0.08 0.08 0.08 0.06 0.05 0.05 0.06 0.06 0.06 0.05 0.05 0.04 0.02 0.02 0.03 0.02 0.03 0.05 0.05 0.06 0.07 0.06 0.05 0.03 0.02 0.03 0.05 0.05 0.05 0.07 0.08 0.07 0.06 0.06 0.07 0.06 0.06 0.08 0.07 0.05 0.04
0.20 0.15 0.09 0.07 0.07 0.07 0.06 0.05 0.05 0.07 0.09 0.09 0.07 0.05 0.05 0.04 0.03 0.02 0.03 0.03 0.03 0.02 0.03 0.03 0.03 0.02 0.01 0.02 0.04 0.05 0.05 0.04 0.04 0.04 0.05 0.05 0.05 0.05 0.06 0.08 0.08 0.06 0.06
0.19 0.15 0.11 0.08 0.07 0.06 0.06 0.06 0.06 0.06 0.06 0.04 0.04 0.06 0.06 0.05 0.03 0.02 0.02 0.02 0.02 0.02 0.02 0.02 0.02 0.02 0.03 0.04 0.05 0.07 0.07 0.05 0.03 0.03 0.03 0.04 0.04 0.05 0.06 0.08 0.09 0.09 0.07
0.18 0.17 0.12 0.08 0.07 0.06 0.05 0.05 0.06 0.05 0.06 0.05 0.06 0.07 0.03 0.02 0.02 0.03 0.03 0.02 0.02 0.01 0.01 0.01 0.02 0.02 0.03 0.04 0.07 0.07 0.06 0.06 0.05 0.04 0.04 0.04 0.05 0.05 0.06 0.07 0.09 0.09 0.09
0.12 0.12 0.10 0.08 0.07 0.06 0.05 0.05 0.04 0.05 0.06 0.06 0.06 0.05 0.04 0.03 0.03 0.02 0.02 0.02 0.02 0.02 0.01 0.01 0.01 0.01 0.02 0.02 0.03 0.05 0.05 0.05 0.05 0.05 0.05 0.04 0.05 0.06 0.05 0.05 0.06 0.07 0.08
0.08 0.07 0.07 0.06 0.05 0.04 0.04 0.03 0.04 0.04 0.04 0.04 0.04 0.04 0.05 0.04 0.03 0.02 0.02 0.03 0.03 0.02 0.01 0.01 0.02 0.02 0.02 0.02 0.02 0.03 0.04 0.05 0.06 0.05 0.07 0.07 0.08 0.06 0.05 0.05 0.05 0.05 0.05
MSLP
1012.71 1012.29 1012.03 1012.02 1012.24 1012.62 1013.07 1013.48 1013.79 1013.95 1014.02 1014.04 1014.10 1014.25 1014.51 1014.85 1015.24 1015.59 1015.85 1015.99 1016.03 1016.00 1015.96 1015.97 1016.04 1016.18 1016.36 1016.52 1016.63 1016.66 1016.61 1016.51 1016.40 1016.32 1016.31 1016.36 1016.48 1016.62 1016.75 1016.86 1016.92 1016.96 1017.00
1012.30 1012.02 1011.91 1012.01 1012.32 1012.75 1013.22 1013.62 1013.91 1014.06 1014.12 1014.16 1014.25 1014.43 1014.73 1015.09 1015.48 1015.82 1016.05 1016.17 1016.19 1016.15 1016.11 1016.12 1016.20 1016.34 1016.51 1016.66 1016.75 1016.76 1016.70 1016.59 1016.48 1016.41 1016.41 1016.47 1016.58 1016.71 1016.83 1016.92 1016.97 1017.00 1017.03
1011.78 1011.65 1011.68 1011.91 1012.32 1012.83 1013.34 1013.77 1014.06 1014.22 1014.29 1014.34 1014.44 1014.64 1014.93 1015.29 1015.65 1015.96 1016.16 1016.26 1016.26 1016.22 1016.19 1016.21 1016.29 1016.43 1016.59 1016.72 1016.80 1016.79 1016.72 1016.62 1016.52 1016.47 1016.49 1016.56 1016.68 1016.80 1016.91 1016.98 1017.02 1017.05 1017.09
1011.28 1011.27 1011.43 1011.80 1012.31 1012.90 1013.47 1013.93 1014.24 1014.41 1014.49 1014.54 1014.65 1014.83 1015.10 1015.42 1015.75 1016.01 1016.18 1016.25 1016.25 1016.22 1016.20 1016.24 1016.33 1016.47 1016.61 1016.72 1016.77 1016.76 1016.69 1016.60 1016.53 1016.51 1016.55 1016.64 1016.76 1016.87 1016.97 1017.03 1017.07 1017.11 1017.17
1010.93 1011.02 1011.28 1011.74 1012.34 1012.99 1013.60 1014.08 1014.40 1014.58 1014.67 1014.73 1014.82 1014.99 1015.22 1015.50 1015.78 1016.00 1016.13 1016.19 1016.19 1016.17 1016.18 1016.23 1016.34 1016.47 1016.59 1016.68 1016.71 1016.68 1016.61 1016.54 1016.50 1016.51 1016.57 1016.68 1016.81 1016.92 1017.00 1017.06 1017.10 1017.14 1017.22
1010.83 1010.98 1011.31 1011.83 1012.47 1013.14 1013.75 1014.23 1014.54 1014.72 1014.80 1014.85 1014.94 1015.09 1015.29 1015.53 1015.76 1015.94 1016.05 1016.10 1016.11 1016.11 1016.14 1016.21 1016.32 1016.45 1016.55 1016.62 1016.62 1016.58 1016.51 1016.45 1016.43 1016.47 1016.56 1016.68 1016.80 1016.91 1016.98 1017.02 1017.06 1017.12 1017.22
1011.03 1011.21 1011.57 1012.10 1012.73 1013.37 1013.93 1014.37 1014.64 1014.79 1014.86 1014.91 1014.99 1015.13 1015.32 1015.52 1015.72 1015.87 1015.96 1016.01 1016.03 1016.05 1016.10 1016.19 1016.31 1016.42 1016.51 1016.54 1016.52 1016.46 1016.38 1016.33 1016.32 1016.37 1016.47 1016.60 1016.72 1016.81 1016.86 1016.89 1016.93 1017.00 1017.13
1011.50 1011.68 1012.04 1012.53 1013.11 1013.67 1014.15 1014.50 1014.71 1014.81 1014.86 1014.91 1015.00 1015.14 1015.32 1015.51 1015.68 1015.81 1015.89 1015.93 1015.95 1015.99 1016.06 1016.16 1016.28 1016.38 1016.45 1016.45 1016.40 1016.32 1016.23 1016.17 1016.16 1016.21 1016.31 1016.42 1016.53 1016.60 1016.64 1016.66 1016.69 1016.77 1016.91
1012.12 1012.31 1012.64 1013.08 1013.57 1014.02 1014.38 1014.62 1014.75 1014.80 1014.83 1014.88 1014.98 1015.14 1015.32 1015.51 1015.67 1015.78 1015.83 1015.86 1015.88 1015.92 1016.00 1016.10 1016.22 1016.31 1016.36 1016.34 1016.26 1016.15 1016.04 1015.96 1015.93 1015.97 1016.05 1016.15 1016.24 1016.30 1016.32 1016.33 1016.36 1016.44 1016.59
1012.74 1012.94 1013.26 1013.65 1014.04 1014.37 1014.60 1014.72 1014.76 1014.77 1014.78 1014.85 1014.97 1015.15 1015.36 1015.54 1015.68 1015.76 1015.79 1015.79 1015.79 1015.82 1015.89 1016.00 1016.11 1016.20 1016.23 1016.20 1016.09 1015.96 1015.82 1015.71 1015.65 1015.66 1015.72 1015.80 1015.87 1015.91 1015.93 1015.93 1015.96 1016.05 1016.20
1013.21 1013.45 1013.77 1014.12 1014.43 1014.65 1014.77 1014.80 1014.77 1014.74 1014.75 1014.84 1015.00 1015.20 1015.42 1015.60 1015.72 1015.77 1015.75 1015.71 1015.68 1015.69 1015.75 1015.85 1015.96 1016.04 1016.07 1016.02 1015.90 1015.74 1015.57 1015.42 1015.33 1015.30 1015.33 1015.38 1015.43 1015.47 1015.49 1015.51 1015.54 1015.63 1015.78
1013.43 1013.74 1014.09 1014.42 1014.68 1014.83 1014.87 1014.83 1014.76 1014.72 1014.75 1014.86 1015.05 1015.29 1015.51 1015.68 1015.77 1015.77 1015.71 1015.62 1015.55 1015.53 1015.57 1015.65 1015.76 1015.85 1015.87 1015.82 1015.69 1015.50 1015.30 1015.12 1014.99 1014.92 1014.91 1014.93 1014.98 1015.02 1015.05 1015.08 1015.13 1015.22 1015.37
1013.38 1013.77 1014.16 1014.51 1014.75 1014.87 1014.87 1014.81 1014.74 1014.71 1014.76 1014.91 1015.13 1015.38 1015.61 1015.76 1015.81 1015.77 1015.65 1015.52 1015.41 1015.35 1015.38 1015.45 1015.56 1015.65 1015.67 1015.62 1015.48 1015.27 1015.04 1014.82 1014.64 1014.53 1014.48 1014.48 1014.51 1014.56 1014.61 1014.66 1014.73 1014.84 1014.98
1013.12 1013.58 1014.03 1014.40 1014.65 1014.77 1014.78 1014.73 1014.68 1014.69 1014.78 1014.96 1015.21 1015.47 1015.68 1015.81 1015.83 1015.75 1015.60 1015.43 1015.29 1015.21 1015.22 1015.29 1015.39 1015.48 1015.50 1015.44 1015.29 1015.07 1014.81 1014.55 1014.32 1014.16 1014.07 1014.04 1014.06 1014.12 1014.18 1014.26 1014.35 1014.46 1014.60
1012.75 1013.26 1013.76 1014.16 1014.44 1014.59 1014.63 1014.62 1014.61 1014.67 1014.80 1015.01 1015.27 1015.53 1015.73 1015.83 1015.83 1015.72 1015.56 1015.37 1015.22 1015.14 1015.14 1015.20 1015.30 1015.37 1015.39 1015.32 1015.15 1014.90 1014.61 1014.30 1014.03 1013.82 1013.69 1013.63 1013.63 1013.68 1013.76 1013.85 1013.96 1014.07 1014.20
1012.42 1012.95 1013.46 1013.88 1014.18 1014.37 1014.46 1014.50 1014.55 1014.65 1014.82 1015.05 1015.31 1015.55 1015.73 1015.82 1015.81 1015.70 1015.55 1015.38 1015.24 1015.17 1015.17 1015.23 1015.31 1015.36 1015.36 1015.26 1015.07 1014.79 1014.46 1014.12 1013.80 1013.54 1013.35 1013.25 1013.22 1013.25 1013.32 1013.42 1013.53 1013.64 1013.75
1012.24 1012.75 1013.24 1013.66 1013.98 1014.19 1014.33 1014.43 1014.54 1014.67 1014.86 1015.09 1015.33 1015.55 1015.71 1015.79 1015.78 1015.70 1015.58 1015.46 1015.36 1015.32 1015.33 1015.38 1015.43 1015.46 1015.41 1015.28 1015.06 1014.75 1014.38 1014.00 1013.63 1013.32 1013.08 1012.92 1012.85 1012.84 1012.89 1012.96 1013.06 1013.15 1013.24
1012.29 1012.75 1013.19 1013.57 1013.88 1014.12 1014.29 1014.44 1014.59 1014.76 1014.95 1015.16 1015.37 1015.56 1015.69 1015.76 1015.77 1015.74 1015.67 1015.61 1015.57 1015.57 1015.60 1015.64 1015.66 1015.64 1015.55 1015.38 1015.11 1014.77 1014.38 1013.96 1013.56 1013.19 1012.90 1012.68 1012.54 1012.48 1012.48 1012.51 1012.58 1012.64 1012.71
1012.57 1012.94 1013.31 1013.64 1013.93 1014.18 1014.38 1014.57 1014.75 1014.93 1015.11 1015.29 1015.46 1015.60 1015.70 1015.77 1015.80 1015.82 1015.82 1015.84 1015.87 1015.91 1015.95 1015.98 1015.97 1015.90 1015.76 1015.54 1015.24 1014.87 1014.46 1014.02 1013.59 1013.19 1012.84 1012.56 1012.35 1012.21 1012.14 1012.11 1012.13 1012.16 1012.19
1013.03 1013.31 1013.60 1013.87 1014.13 1014.37 1014.60 1014.82 1015.02 1015.21 1015.37 1015.51 1015.62 1015.70 1015.77 1015.83 1015.88 1015.95 1016.03 1016.11 1016.21 1016.29 1016.35 1016.36 1016.32 1016.21 1016.02 1015.76 1015.44 1015.06 1014.64 1014.20 1013.76 1013.33 1012.93 1012.59 1012.30 1012.08 1011.92 1011.82 1011.77 1011.76 1011.76
1013.58 1013.79 1014.00 1014.22 1014.44 1014.69 1014.93 1015.17 1015.39 1015.58 1015.72 1015.81 1015.87 1015.90 1015.92 1015.96 1016.03 1016.14 1016.27 1016.42 1016.56 1016.68 1016.74 1016.75 1016.67 1016.53 1016.31 1016.03 1015.70 1015.33 1014.93 1014.50 1014.07 1013.62 1013.19 1012.78 1012.42 1012.11 1011.86 1011.68 1011.57 1011.50 1011.47
1014.15 1014.30 1014.46 1014.63 1014.83 1015.07 1015.33 1015.60 1015.84 1016.02 1016.15 1016.20 1016.20 1016.18 1016.16 1016.18 1016.24 1016.37 1016.54 1016.72 1016.90 1017.04 1017.11 1017.10 1017.01 1016.84 1016.60 1016.32 1016.01 1015.67 1015.30 1014.91 1014.49 1014.05 1013.59 1013.14 1012.70 1012.30 1011.97 1011.71 1011.53 1011.42 1011.36
1014.68 1014.80 1014.92 1015.06 1015.25 1015.49 1015.77 1016.06 1016.32 1016.51 1016.62 1016.65 1016.61 1016.54 1016.48 1016.46 1016.51 1016.63 1016.81 1017.01 1017.21 1017.35 1017.42 1017.39 1017.29 1017.11 1016.88 1016.62 1016.34 1016.04 1015.73 1015.39 1015.00 1014.57 1014.10 1013.60 1013.10 1012.63 1012.22 1011.88 1011.64 1011.48 1011.40
1015.15 1015.27 1015.36 1015.48 1015.66 1015.91 1016.20 1016.51 1016.79 1016.99 1017.10 1017.11 1017.04 1016.94 1016.84 1016.78 1016.81 1016.91 1017.07 1017.27 1017.45 1017.58 1017.64 1017.61 1017.49 1017.32 1017.11 1016.88 1016.65 1016.41 1016.16 1015.86 1015.52 1015.10 1014.63 1014.10 1013.55 1013.02 1012.54 1012.14 1011.85 1011.65 1011.55
1015.58 1015.70 1015.79 1015.90 1016.07 1016.31 1016.61 1016.93 1017.22 1017.44 1017.55 1017.55 1017.46 1017.33 1017.21 1017.12 1017.11 1017.18 1017.31 1017.47 1017.62 1017.73 1017.77 1017.72 1017.61 1017.45 1017.26 1017.07 1016.89 1016.71 1016.51 1016.27 1015.96 1015.57 1015.09 1014.54 1013.96 1013.38 1012.85 1012.40 1012.06 1011.84 1011.72
1016.01 1016.14 1016.22 1016.32 1016.47 1016.70 1016.99 1017.30 1017.59 1017.81 1017.92 1017.92 1017.83 1017.69 1017.55 1017.43 1017.39 1017.41 1017.50 1017.61 1017.72 1017.79 1017.80 1017.74 1017.62 1017.47 1017.31 1017.16 1017.03 1016.89 1016.74 1016.54 1016.26 1015.88 1015.41 1014.85 1014.25 1013.65 1013.09 1012.60 1012.23 1011.98 1011.84
Thickness
5793 5794 5793 5790 5788 5786 5783 5780 5777 5775 5773 5770 5768 5766 5764 5762 5760 5758 5756 5754 5752 5751 5749 5748 5746 5745 5744 5743 5742 5741 5740 5738 5737 5737 5736 5735 5735 5734 5733 5732 5730 5729 5727
5798 5794 5792 5789 5786 5783 5780 5778 5775 5772 5770 5768 5766 5763 5761 5760 5758 5756 5754 5752 5750 5749 5747 5746 5744 5743 5741 5740 5739 5738 5737 5736 5735 5734 5734 5733 5732 5731 5731 5729 5728 5727 5725
5798 5793 5790 5787 5784 5781 5778 5775 5772 5770 5767 5765 5763 5761 5759 5757 5755 5753 5751 5750 5748 5746 5745 5743 5742 5740 5739 5737 5736 5735 5734 5733 5733 5732 5731 5730 5730 5729 5729 5728 5726 5725 5723
5796 5792 5788 5785 5782 5779 5776 5772 5770 5767 5765 5762 5760 5758 5756 5754 5752 5751 5749 5747 5745 5744 5742 5741 5739 5738 5737 5735 5734 5733 5732 5731 5731 5730 5730 5729 5728 5728 5727 5726 5724 5723 5722
5793 5790 5786 5783 5780 5776 5773 5770 5767 5765 5762 5760 5757 5755 5753 5751 5750 5748 5746 5744 5743 5741 5739 5738 5737 5736 5734 5733 5732 5731 5730 5730 5729 5729 5729 5728 5727 5726 5726 5725 5723 5722 5720
5790 5787 5784 5781 5777 5774 5770 5768 5765 5762 5759 5757 5755 5752 5750 5748 5747 5745 5743 5742 5740 5739 5737 5736 5735 5733 5732 5731 5730 5729 5728 5728 5728 5728 5727 5727 5726 5725 5725 5723 5722 5721 5719
5787 5784 5780 5777 5774 5771 5768 5765 5762 5759 5757 5754 5752 5749 5747 5745 5743 5742 5740 5739 5738 5736 5735 5734 5733 5731 5730 5728 5727 5727 5726 5726 5726 5726 5725 5725 5725 5724 5724 5722 5721 5720 5718
5785 5781 5777 5773 5770 5767 5764 5761 5759 5756 5754 5751 5749 5746 5744 5742 5740 5739 5737 5736 5735 5733 5732 5731 5730 5729 5727 5726 5725 5724 5724 5723 5724 5724 5723 5723 5723 5722 5721 5720 5719 5718 5716
5781 5777 5773 5770 5767 5764 5761 5758 5755 5752 5750 5748 5745 5743 5741 5739 5737 5735 5734 5733 5731 5730 5729 5728 5727 5726 5725 5724 5723 5722 5721 5721 5721 5721 5721 5721 5720 5720 5719 5717 5716 5715 5714
5776 5773 5770 5766 5763 5760 5757 5754 5751 5749 5746 5744 5742 5739 5737 5735 5733 5732 5730 5729 5728 5727 5725 5724 5723 5722 5722 5721 5721 5720 5719 5718 5718 5718 5718 5718 5718 5717 5716 5714 5713 5712 5711
5769 5767 5765 5763 5759 5756 5753 5750 5748 5745 5743 5740 5738 5736 5734 5731 5729 5728 5727 5725 5724 5723 5722 5721 5720 5719 5718 5718 5717 5717 5716 5715 5714 5714 5714 5715 5714 5714 5713 5712 5711 5710 5709
5763 5761 5761 5759 5756 5753 5750 5747 5744 5741 5739 5736 5734 5732 5731 5728 5725 5724 5722 5721 5720 5718 5718 5717 5716 5715 5714 5714 5713 5712 5712 5711 5711 5710 5710 5711 5711 5711 5710 5710 5709 5708 5707
5762 5760 5758 5756 5753 5750 5747 5743 5740 5737 5734 5732 5730 5728 5726 5723 5721 5719 5717 5716 5715 5713 5713 5712 5711 5710 5709 5708 5708 5707 5707 5707 5706 5706 5706 5707 5707 5707 5707 5706 5705 5705 5704
5758 5757 5755 5753 5750 5747 5743 5740 5736 5733 5730 5727 5725 5723 5720 5717 5715 5713 5712 5710 5709 5707 5706 5705 5704 5704 5703 5703 5703 5702 5701 5701 5701 5701 5701 5702 5702 5702 5702 5702 5700 5700 5700
5754 5752 5751 5750 5747 5743 5740 5736 5733 5729 5726 5723 5720 5718 5715 5712 5709 5708 5706 5705 5703 5701 5700 5699 5697 5696 5696 5697 5697 5696 5696 5696 5696 5695 5696 5696 5697 5697 5697 5697 5696 5696 5696
5749 5748 5748 5745 5742 5739 5736 5732 5729 5726 5722 5719 5716 5712 5710 5706 5703 5701 5699 5698 5696 5695 5693 5691 5689 5688 5688 5689 5690 5690 5690 5690 5690 5690 5690 5691 5691 5691 5691 5692 5692 5692 5692
5745 5744 5743 5740 5738 5735 5732 5728 5725 5721 5717 5713 5710 5707 5704 5701 5698 5695 5693 5690 5688 5686 5685 5683 5682 5681 5680 5681 5681 5682 5683 5684 5684 5684 5684 5684 5685 5686 5686 5686 5687 5687 5688
5742 5739 5738 5736 5732 5729 5726 5722 5719 5715 5712 5707 5704 5700 5697 5694 5691 5689 5686 5683 5681 5679 5676 5674 5672 5671 5671 5671 5672 5674 5675 5676 5677 5678 5678 5679 5680 5680 5681 5681 5682 5682 5682
5739 5735 5731 5729 5725 5722 5720 5716 5713 5709 5705 5701 5697 5693 5690 5688 5685 5682 5679 5676 5673 5671 5668 5666 5664 5662 5662 5663 5664 5666 5667 5668 5670 5671 5672 5673 5673 5674 5674 5675 5676 5677 5677
5733 5729 5726 5723 5720 5717 5714 5710 5706 5701 5697 5694 5690 5686 5683 5681 5678 5675 5671 5668 5665 5661 5659 5658 5656 5655 5655 5655 5657 5657 5658 5660 5661 5663 5664 5665 5666 5666 5667 5669 5670 5671 5672
5724 5722 5720 5717 5714 5711 5706 5701 5697 5692 5689 5686 5683 5679 5676 5673 5670 5667 5663 5660 5657 5654 5651 5650 5648 5647 5646 5647 5646 5646 5649 5651 5652 5654 5656 5657 5658 5660 5661 5662 5663 5664 5665
5719 5715 5713 5711 5708 5705 5702 5698 5693 5688 5683 5679 5676 5672 5669 5666 5663 5660 5656 5652 5649 5646 5644 5642 5641 5638 5637 5637 5635 5634 5634 5637 5642 5646 5647 5648 5650 5652 5653 5655 5655 5656 5658
5714 5711 5709 5706 5703 5700 5697 5693 5687 5681 5675 5670 5667 5663 5661 5658 5656 5652 5649 5646 5642 5639 5636 5634 5633 5630 5628 5628 5628 5625 5624 5625 5628 5634 5637 5640 5641 5643 5645 5647 5648 5650 5652
5711 5708 5705 5702 5698 5694 5691 5686 5680 5672 5666 5663 5660 5657 5655 5652 5649 5645 5642 5638 5634 5631 5629 5627 5625 5623 5621 5619 5619 5620 5619 5619 5618 5621 5626 5630 5633 5635 5637 5640 5641 5643 5645
5707 5702 5699 5696 5692 5688 5684 5680 5674 5667 5663 5658 5654 5650 5647 5644 5641 5638 5635 5631 5627 5625 5622 5620 5618 5616 5614 5613 5611 5611 5612 5612 5613 5613 5615 5619 5623 5627 5630 5632 5634 5636 5637
5701 5697 5693 5689 5685 5682 5678 5673 5668 5663 5658 5653 5648 5644 5639 5636 5633 5631 5628 5624 5621 5618 5616 5614 5612 5610 5608 5607 5606 5605 5605 5605 5605 5605 5607 5610 5613 5619 5622 5625 5627 5629 5630